Big Rapids, MI

6:20 AM EDT on August 23, 2019 (GMT -0400)
Roben-Hood

Weather History for KRQB - May, 2019

Change the Weather History Date:

Saturday, May 18, 2019

  Actual Average Record
Temperature  
Mean Temperature 58 °F -  
Max Temperature 68 °F 70 °F 87 °F (1972)
Min Temperature 47 °F 43 °F 28 °F (1973)
Degree Days  
Heating Degree Days 8    
Growing Degree Days 8 (Base 50)    
Moisture  
Dew Point 48 °F    
Average Humidity 74    
Maximum Humidity 90    
Minimum Humidity 56    
Precipitation  
Precipitation 0.03 in - - ()
Sea Level Pressure  
Sea Level Pressure 29.87 in    
Wind  
Wind Speed 6 mph (ESE)    
Max Wind Speed 16 mph    
Max Gust Speed 24 mph    
Visibility 10 miles    
Events Rain    
Averages and records for this station are not official NWS values.
T = Trace of Precipitation, MM = Missing Value Source: NWS Daily Summary

Daily Weather History Graph

Daily Weather History Graph

Search for Another Location

Airport or City:

Astronomy

May. 18, 2019 Rise Set
Actual Time 6:13 AM EDT 9:03 PM EDT
Civil Twilight 5:40 AM EDT 9:37 PM EDT
Nautical Twilight 4:57 AM EDT 10:19 PM EDT
Astronomical Twilight 4:08 AM EDT 11:09 PM EDT
Moon 8:56 PM EDT (5/18) 6:23 AM EDT (5/18)
Length of Visible Light 15h 56m
Length of Day
14h 49m
Full, 100% of the Moon is Illuminated
May 18
Full
May 18
Full
May 26
Last Quarter
Jun 3
New
Jun 10
First Quarter

Hourly Weather History & Observations

Time (EDT) Temp. Dew Point Humidity Pressure Visibility Wind Dir Wind Speed Gust Speed Precip Events Conditions
12:15 AM 51.4 °F 36.5 °F 57% 29.97 in 10.0 mi NE 5.8 mph - N/A   Overcast
12:35 AM 51.8 °F 36.9 °F 57% 29.96 in 10.0 mi NE 4.6 mph - N/A   Overcast
12:55 AM 51.4 °F 37.8 °F 60% 29.96 in 10.0 mi ENE 3.5 mph - N/A   Overcast
12:56 AM 51.4 °F 37.8 °F 60% 29.96 in 10.0 mi ENE 3.5 mph - N/A   Overcast
1:15 AM 51.3 °F 38.5 °F 62% 29.96 in 10.0 mi Calm Calm - N/A   Overcast
1:16 AM 51.3 °F 38.5 °F 62% 29.96 in 10.0 mi Calm Calm - N/A   Overcast
1:35 AM 51.3 °F 39.2 °F 63% 29.95 in 10.0 mi ENE 3.5 mph - N/A   Overcast
1:55 AM 51.8 °F 38.5 °F 60% 29.95 in 10.0 mi East 6.9 mph - N/A   Overcast
1:56 AM 51.8 °F 38.3 °F 60% 29.95 in 10.0 mi East 6.9 mph - N/A   Overcast
2:15 AM 52.0 °F 36.9 °F 56% 29.94 in 10.0 mi East 8.1 mph - N/A   Overcast
2:16 AM 52.0 °F 36.9 °F 56% 29.94 in 10.0 mi East 8.1 mph - N/A   Overcast
2:35 AM 51.8 °F 36.3 °F 56% 29.94 in 10.0 mi East 6.9 mph - N/A   Mostly Cloudy
2:55 AM 51.4 °F 36.5 °F 57% 29.93 in 10.0 mi East 5.8 mph - N/A   Mostly Cloudy
3:15 AM 51.4 °F 36.7 °F 57% 29.93 in 10.0 mi East 6.9 mph - N/A   Overcast
3:35 AM 51.4 °F 38.3 °F 61% 29.94 in 10.0 mi East 5.8 mph - N/A   Overcast
3:36 AM 51.4 °F 38.3 °F 61% 29.94 in 10.0 mi East 5.8 mph - N/A   Overcast
3:55 AM 51.3 °F 39.4 °F 64% 29.94 in 10.0 mi East 6.9 mph - N/A   Overcast
4:15 AM 51.3 °F 39.7 °F 65% 29.94 in 10.0 mi ESE 5.8 mph - N/A   Overcast
4:35 AM 51.1 °F 40.1 °F 66% 29.94 in 10.0 mi East 5.8 mph - N/A   Overcast
4:36 AM 51.1 °F 40.1 °F 66% 29.94 in 10.0 mi East 4.6 mph - N/A   Overcast
4:55 AM 50.2 °F 41.7 °F 73% 29.95 in 10.0 mi ESE 4.6 mph - N/A Rain Light Rain
5:35 AM 48.2 °F 43.9 °F 85% 29.94 in 10.0 mi Calm Calm - 0.02 in Rain Light Rain
5:36 AM 48.2 °F 43.9 °F 85% 29.94 in 10.0 mi Calm Calm - 0.02 in Rain Light Rain
5:55 AM 47.7 °F 44.4 °F 89% 29.94 in 10.0 mi East 3.5 mph - 0.03 in Rain Light Rain
6:15 AM 47.5 °F 44.6 °F 90% 29.93 in 10.0 mi East 4.6 mph - N/A Rain Light Rain
6:35 AM 47.8 °F 45.0 °F 90% 29.93 in 10.0 mi SE 8.1 mph - N/A   Overcast
6:55 AM 48.0 °F 45.1 °F 90% 29.94 in 10.0 mi East 4.6 mph - N/A   Overcast
6:56 AM 48.0 °F 45.1 °F 90% 29.94 in 10.0 mi ESE 4.6 mph - N/A   Overcast
7:15 AM 48.2 °F 45.1 °F 89% 29.94 in 10.0 mi East 4.6 mph - N/A   Overcast
7:16 AM 48.2 °F 45.1 °F 89% 29.94 in 10.0 mi East 4.6 mph - N/A   Overcast
7:35 AM 48.2 °F 45.5 °F 90% 29.94 in 10.0 mi East 4.6 mph - N/A   Overcast
7:55 AM 48.2 °F 45.1 °F 89% 29.94 in 10.0 mi ESE 5.8 mph - N/A   Overcast
8:15 AM 48.6 °F 45.1 °F 88% 29.94 in 10.0 mi ESE 6.9 mph - N/A   Overcast
8:16 AM 48.6 °F 45.1 °F 88% 29.94 in 10.0 mi ESE 8.1 mph - N/A   Overcast
8:35 AM 48.7 °F 45.0 °F 87% 29.94 in 10.0 mi ESE 9.2 mph - N/A   Overcast
8:36 AM 48.7 °F 45.0 °F 87% 29.94 in 10.0 mi ESE 9.2 mph - N/A   Overcast
8:55 AM 49.1 °F 45.5 °F 87% 29.93 in 10.0 mi ESE 10.4 mph - N/A   Overcast
9:15 AM 50.0 °F 46.2 °F 87% 29.93 in 10.0 mi ESE 9.2 mph - N/A   Overcast
9:16 AM 50.0 °F 46.2 °F 87% 29.93 in 10.0 mi SE 10.4 mph - N/A   Overcast
9:35 AM 50.9 °F 45.9 °F 83% 29.92 in 10.0 mi ESE 9.2 mph - N/A   Overcast
9:36 AM 50.9 °F 46.0 °F 83% 29.92 in 10.0 mi ESE 12.7 mph 18.4 mph N/A   Overcast
9:55 AM 51.3 °F 45.7 °F 81% 29.92 in 10.0 mi SE 8.1 mph - N/A   Overcast
10:15 AM 51.8 °F 45.3 °F 79% 29.92 in 10.0 mi SE 12.7 mph - N/A   Overcast
10:35 AM 52.5 °F 45.7 °F 78% 29.91 in 10.0 mi ESE 10.4 mph - N/A   Overcast
10:36 AM 52.5 °F 45.7 °F 78% 29.91 in 10.0 mi ESE 12.7 mph - N/A   Overcast
10:55 AM 53.2 °F 45.5 °F 75% 29.90 in 10.0 mi SE 10.4 mph 17.3 mph N/A   Overcast
10:56 AM 53.2 °F 45.5 °F 75% 29.90 in 10.0 mi SE 11.5 mph 17.3 mph N/A   Overcast
11:15 AM 54.0 °F 45.1 °F 72% 29.89 in 10.0 mi ESE 10.4 mph - N/A   Overcast
11:35 AM 55.8 °F 46.0 °F 70% 29.88 in 10.0 mi SE 13.8 mph 19.6 mph N/A   Overcast
11:36 AM 55.8 °F 46.0 °F 70% 29.88 in 10.0 mi SE 13.8 mph 19.6 mph N/A   Overcast
11:55 AM 56.5 °F 47.1 °F 71% 29.89 in 10.0 mi SE 12.7 mph - N/A   Overcast
11:56 AM 56.5 °F 47.1 °F 71% 29.89 in 10.0 mi SE 12.7 mph - N/A   Overcast
12:15 PM 56.7 °F 47.7 °F 72% 29.89 in 10.0 mi SE 12.7 mph 17.3 mph N/A   Overcast
12:35 PM 57.4 °F 48.2 °F 71% 29.89 in 10.0 mi SE 6.9 mph 16.1 mph N/A   Overcast
12:36 PM 57.4 °F 48.2 °F 71% 29.89 in 10.0 mi SE 6.9 mph 16.1 mph N/A   Overcast
12:55 PM 58.1 °F 48.2 °F 70% 29.89 in 10.0 mi ESE 11.5 mph 17.3 mph N/A   Overcast
12:56 PM 58.1 °F 48.2 °F 70% 29.89 in 10.0 mi ESE 9.2 mph 17.3 mph N/A   Overcast
1:15 PM 58.3 °F 48.4 °F 70% 29.88 in 10.0 mi ESE 13.8 mph 19.6 mph N/A   Overcast
1:35 PM 58.8 °F 49.1 °F 70% 29.87 in 10.0 mi SE 12.7 mph 18.4 mph N/A   Overcast
1:55 PM 59.2 °F 50.0 °F 72% 29.88 in 10.0 mi SE 5.8 mph - N/A   Overcast
1:56 PM 59.2 °F 50.0 °F 72% 29.87 in 10.0 mi SE 9.2 mph - N/A   Overcast
2:15 PM 60.3 °F 51.1 °F 72% 29.86 in 10.0 mi ESE 9.2 mph 18.4 mph N/A   Overcast
2:16 PM 60.4 °F 51.1 °F 71% 29.85 in 10.0 mi ESE 8.1 mph 18.4 mph N/A   Overcast
2:35 PM 60.4 °F 50.9 °F 71% 29.85 in 10.0 mi ESE 10.4 mph 16.1 mph N/A   Overcast
2:55 PM 61.9 °F 52.0 °F 70% 29.84 in 10.0 mi SSE 6.9 mph 16.1 mph N/A   Overcast
3:15 PM 62.1 °F 52.2 °F 70% 29.83 in 10.0 mi ESE 6.9 mph - N/A   Overcast
3:16 PM 61.9 °F 52.2 °F 70% 29.83 in 10.0 mi ESE 6.9 mph - N/A   Overcast
3:35 PM 63.0 °F 53.6 °F 71% 29.82 in 10.0 mi SSE 9.2 mph - N/A   Overcast
3:55 PM 63.9 °F 54.5 °F 72% 29.80 in 10.0 mi SE 11.5 mph - N/A   Overcast
4:15 PM 65.1 °F 55.4 °F 71% 29.78 in 10.0 mi SSE 11.5 mph 20.7 mph N/A   Scattered Clouds
4:35 PM 65.3 °F 55.4 °F 70% 29.76 in 10.0 mi SSE 16.1 mph 24.2 mph N/A   Scattered Clouds
4:36 PM 65.3 °F 55.4 °F 70% 29.76 in 10.0 mi South 15.0 mph 24.2 mph N/A   Scattered Clouds
4:55 PM 66.2 °F 56.3 °F 70% 29.76 in 10.0 mi SSE 13.8 mph - N/A   Scattered Clouds
5:15 PM 67.1 °F 57.2 °F 70% 29.76 in 10.0 mi SSE 12.7 mph 16.1 mph N/A   Clear
5:35 PM 66.9 °F 57.6 °F 72% 29.77 in 10.0 mi ESE 9.2 mph - N/A   Clear
5:36 PM 67.1 °F 57.6 °F 71% 29.77 in 10.0 mi ESE 9.2 mph - N/A   Clear
5:55 PM 67.5 °F 57.9 °F 71% 29.77 in 10.0 mi ESE 8.1 mph - N/A   Clear
6:15 PM 67.6 °F 58.5 °F 72% 29.76 in 10.0 mi ESE 9.2 mph - N/A   Clear
6:35 PM 67.6 °F 58.5 °F 72% 29.77 in 10.0 mi ESE 5.8 mph - N/A   Clear
6:36 PM 67.6 °F 58.6 °F 73% 29.77 in 10.0 mi ESE 6.9 mph - N/A   Clear
6:55 PM 68.0 °F 59.0 °F 73% 29.77 in 10.0 mi East 6.9 mph - N/A   Clear
7:15 PM 67.8 °F 59.2 °F 74% 29.76 in 10.0 mi East 6.9 mph - N/A   Clear
7:35 PM 67.3 °F 59.0 °F 75% 29.76 in 10.0 mi East 5.8 mph - N/A   Clear
7:55 PM 67.1 °F 59.0 °F 75% 29.75 in 10.0 mi East 9.2 mph - N/A   Clear
7:56 PM 66.9 °F 59.0 °F 76% 29.74 in 10.0 mi East 10.4 mph - N/A   Clear
8:15 PM 66.6 °F 59.0 °F 77% 29.75 in 10.0 mi South 4.6 mph - N/A   Clear
8:35 PM 66.4 °F 58.8 °F 77% 29.77 in 10.0 mi Calm Calm - N/A   Clear
8:55 PM 65.1 °F 58.6 °F 79% 29.77 in 10.0 mi Calm Calm - N/A   Scattered Clouds
8:56 PM 65.1 °F 58.8 °F 80% 29.77 in 10.0 mi Calm Calm - N/A   Scattered Clouds
9:15 PM 63.7 °F 59.0 °F 85% 29.78 in 10.0 mi Calm Calm - N/A   Mostly Cloudy
9:35 PM 62.6 °F 58.8 °F 87% 29.79 in 10.0 mi Calm Calm - N/A   Overcast
9:55 PM 63.0 °F 55.4 °F 76% 29.79 in 10.0 mi East 8.1 mph - N/A   Overcast
9:56 PM 62.8 °F 55.0 °F 76% 29.79 in 10.0 mi East 6.9 mph - N/A   Overcast
10:15 PM 61.7 °F 53.8 °F 75% 29.80 in 10.0 mi Calm Calm - N/A   Mostly Cloudy
10:16 PM 61.7 °F 53.8 °F 75% 29.80 in 10.0 mi Calm Calm - N/A   Mostly Cloudy
10:35 PM 60.6 °F 52.7 °F 75% 29.80 in 10.0 mi ESE 4.6 mph - N/A   Mostly Cloudy
10:55 PM 59.9 °F 52.3 °F 76% 29.81 in 10.0 mi Calm Calm - N/A   Mostly Cloudy
11:15 PM 59.0 °F 52.2 °F 78% 29.81 in 10.0 mi Calm Calm - N/A   Mostly Cloudy
11:16 PM 58.8 °F 52.0 °F 78% 29.81 in 10.0 mi Calm Calm - N/A   Mostly Cloudy
11:35 PM 58.1 °F 52.7 °F 82% 29.81 in 10.0 mi Calm Calm - N/A   Overcast
11:55 PM 57.9 °F 50.2 °F 75% 29.80 in 10.0 mi East 5.8 mph - N/A   Overcast